Location: Harless
(34.2309°N, 106.4406°W)
Time: 10:49:15
(UTC+00:00)

Daily predictions for brighter satellites

Satellite Brightness Start Highest point End
(mag) Time Altitude Azimuth Time Altitude Azimuth Time Altitude Azimuth
Cosmos 1553 Rocket 4.0 12:02:33 10° SSW 12:08:34 64° W 12:14:41 10° N
Cosmos 1238 Rocket 3.9 12:09:36 10° WSW 12:11:21 14° W 12:13:02 10° NW
Aurora 2 Rocket 4.3 12:07:02 10° WSW 12:13:25 32° SSW 12:18:19 10° SE
Meteor 1-18 Rocket 4.2 12:08:36 10° S 12:14:16 79° W 12:19:53 10° N
Meteor 2-11 Rocket 4.5 12:08:59 10° NNW 12:15:05 66° W 12:21:08 10° S
